Weather History for Challis, ID

Change the Weather History Date:

Thursday, February 14, 2013

  Actual Average Record
Temperature  
Mean Temperature 31 °F 24 °F  
Max Temperature 42 °F 35 °F 57 °F (1991)
Min Temperature 19 °F 13 °F -15 °F (1933)
Degree Days  
Heating Degree Days 34 41  
Month to date heating degree days 537 596  
Since 1 July heating degree days 5165 5518  
Cooling Degree Days 0 0  
Month to date cooling degree days 0 0  
Year to date cooling degree days 0 0  
Moisture  
Dew Point 15 °F    
Average Humidity 49    
Maximum Humidity 68    
Minimum Humidity 30    
Precipitation  
Precipitation 0.00 in 0.02 in 0.30 in (1979)
Month to date precipitation T 0.31  
Year to date precipitation 0.21 0.82  
Sea Level Pressure  
Sea Level Pressure 30.36 in    
Wind  
Wind Speed 3 mph (SSW)    
Max Wind Speed 12 mph    
Max Gust Speed 14 mph    
Visibility 10 miles    
Events      
T = Trace of Precipitation, MM = Missing Value Source: NWS Daily Summary

Daily Weather History Graph

Daily Weather History Graph

Search for Another Location

Airport:

Trip Planner

Search our weather history database for the weather conditions in past years. The results will help you decide how hot, cold, wet, or windy it might be!

Date:

Astronomy

Feb. 14, 2013 Rise Set
Actual Time 7:37 AM MST 6:04 PM MST
Civil Twilight 7:07 AM MST 6:34 PM MST
Nautical Twilight 6:33 AM MST 7:08 PM MST
Astronomical Twilight 6:00 AM MST 7:42 PM MST
Moon 9:28 AM MST (2/14) 11:26 PM MST (2/14)
Length of Visible Light 11h 26m
Length of Day
10h 26m
Waxing Crescent, 22% of the Moon is Illuminated
Feb 14
Waxing Crescent
Feb 17
First Quarter
Feb 25
Full
Mar 4
Last Quarter
Mar 11
New

Hourly Weather History & Observations

Time (MST) Temp. Windchill Dew Point Humidity Pressure Visibility Wind Dir Wind Speed Gust Speed Precip Events Conditions
12:55 AM 32.0 °F 24.8 °F 17.1 °F 54% 30.20 in 10.0 mi NW 8.1 mph - N/A   Overcast
1:55 AM 30.9 °F 25.2 °F 17.1 °F 57% 30.21 in 10.0 mi South 5.8 mph - N/A   Partly Cloudy
2:55 AM 32.0 °F 24.8 °F 15.1 °F 50% 30.22 in 10.0 mi NW 8.1 mph - N/A   Mostly Cloudy
3:55 AM 30.0 °F 23.2 °F 15.1 °F 54% 30.25 in 10.0 mi WNW 6.9 mph - N/A   Scattered Clouds
5:55 AM 24.1 °F 19.7 °F 12.9 °F 62% 30.33 in 10.0 mi South 3.5 mph - N/A   Clear
6:55 AM 23.0 °F 18.4 °F 12.0 °F 63% 30.38 in 10.0 mi SSW 3.5 mph - N/A   Partly Cloudy
7:55 AM 21.0 °F 14.6 °F 12.0 °F 68% 30.39 in 10.0 mi SSW 4.6 mph - N/A   Clear
8:55 AM 24.1 °F - 14.0 °F 65% 30.40 in 10.0 mi Calm Calm - N/A   Clear
9:55 AM 28.0 °F - 14.0 °F 56% 30.40 in 10.0 mi Calm Calm - N/A   Clear
10:55 AM 32.0 °F 27.5 °F 14.0 °F 48% 30.38 in 10.0 mi South 4.6 mph - N/A   Clear
11:55 AM 35.1 °F 30.1 °F 12.9 °F 40% 30.38 in 10.0 mi SSE 5.8 mph - N/A   Clear
12:55 PM 36.0 °F - 12.0 °F 37% 30.36 in 10.0 mi Calm Calm - N/A   Clear
1:55 PM 37.9 °F 34.4 °F 12.0 °F 35% 30.33 in 10.0 mi SE 4.6 mph - N/A   Scattered Clouds
2:55 PM 39.9 °F 35.8 °F 12.0 °F 32% 30.31 in 10.0 mi East 5.8 mph - N/A   Clear
3:55 PM 39.9 °F - 12.0 °F 32% 30.32 in 10.0 mi Calm Calm - N/A   Mostly Cloudy
4:55 PM 41.0 °F - 12.9 °F 32% 30.34 in 10.0 mi Calm Calm - N/A   Mostly Cloudy
5:55 PM 32.0 °F 28.7 °F 19.0 °F 59% 30.38 in 10.0 mi SSW 3.5 mph - N/A   Scattered Clouds
6:55 PM 30.9 °F 25.2 °F 18.0 °F 59% 30.40 in 10.0 mi South 5.8 mph - N/A   Clear
7:55 PM 28.9 °F 25.2 °F 17.1 °F 61% 30.43 in 10.0 mi WNW 3.5 mph - N/A   Partly Cloudy
8:55 PM 28.0 °F - 18.0 °F 66% 30.45 in 10.0 mi Calm Calm - N/A   Mostly Cloudy
9:55 PM 26.1 °F - 17.1 °F 69% 30.46 in 10.0 mi Calm Calm - N/A   Clear
10:55 PM 26.1 °F - 16.0 °F 66% 30.46 in 10.0 mi Calm Calm - N/A   Clear
11:55 PM 21.9 °F - 16.0 °F 78% 30.47 in 10.0 mi Calm Calm - N/A   Clear